星链-34546 (STARLINK-34546)

导读

STARLINK-34546是美国SpaceX星链星座的卫星,于2025年6月28日发射升空,属于Starlink Gen2系列,该系列旨在为全球提供高速低延迟卫星互联网服务。星链系统通过近地轨道卫星组网,持续补网扩容,该卫星的入轨进一步扩充了星座规模,提升星座覆盖能力与服务稳定性。

Basic Information
目录编号:
64718
目录名称:
STARLINK-34546
国际标识:
2025-142Y
轨道中心:
EARTH
卫星名称:
星链-34546
卫星全名:
星链-34546 (STARLINK-34546)
卫星状态:
在轨 (已飞行444 天)
发射日期:
2025-06-28 UTC
国别 :
美国 (US)
星等 :
--
This satellite is enrolled in the Space Conjunction Data Service (SCDS) and the current flight risk assessment level is: No High Risk
Orbit Information
数据来源 国际轨道数据
星历时间: 2026-09-14T06:24:56+0800
1天前
查看轨道信息
半长轴: 6855.188km
偏心率: 0.0003072
轨道倾角: 70.002°
近地点辐角 270.759°
升交点赤经 198.401°
平近点角 89.323°
近地点: 474.945km
远地点: 479.157km
周期: 94.143分钟
每日圈数: 15.295854
Detailed Information
固有亮度:
5
最大亮度:
2.5
卫星平台:
Starlink V1.0
覆盖范围:
全球
运营商:
太空探索技术公司
运营商所在国:
美国
制造商(研发单位):
太空探索技术公司
制造商所在国:
美国
使用方式:
暂无
Satellite Introduction
Starlink 计划是 SpaceX 推出的全球卫星互联网项目,通过发射低轨道卫星,为全球尤其是偏远地区提供高速、低延迟的互联网服务。自 2019 年起,Starlink 已部署数千颗卫星,旨在缩小全球数字鸿沟,推动互联网普及。该项目还为军事、航空等行业提供通信支持,带来广泛经济效益。
2D Orbit Map
3D Orbit Map
Orbit Altitude Analysis Chart
Orbit Inclination Analysis Chart
Orbit Comprehensive Analysis Chart
View Comprehensive Chart
Conjunction Data List
Event ID Objects TCA Miss Dist (km) Collision Risk Probability Collision Risk Index (CRI) Action
CDM_260915-035406-265006-471823
2026-09-15T
03:54:28+0000
0.927 km
远距离
3.460412E-5 中风险 0.66
CDM_260915-233006-471806-726723
OBJECT V (67267)
2026-09-15T
23:30:49+0000
1.202 km
极远距离
1.394084E-5 中风险 0.58
CDM_260915-224004-284006-471821
2026-09-15T
22:40:08+0000
2.583 km
极远距离
1.535429E-6 低风险 0.39
CDM_260910-022306-471806-791321
2026-09-10T
02:23:44+0000
2.372 km
极远距离
1.369379E-6 低风险 0.38
CDM_260917-004806-471806-750021
2026-09-17T
00:48:44+0000
2.989 km
极远距离
1.156215E-6 低风险 0.36
CDM_260916-084005-919406-471821
2026-09-16T
08:40:31+0000
2.943 km
极远距离
1.083893E-6 低风险 0.36
CDM_260917-070205-710806-471821
2026-09-17T
07:02:49+0000
2.898 km
极远距离
1.075097E-6 低风险 0.36
CDM_260917-002205-682306-471821
2026-09-17T
00:22:46+0000
2.843 km
极远距离
1.070415E-6 低风险 0.36
CDM_260910-191605-705106-471821
2026-09-10T
19:16:45+0000
2.974 km
极远距离
9.019264E-7 极低风险 0.34
CDM_260912-153706-471806-733421
2026-09-12T
15:37:00+0000
2.835 km
极远距离
8.813525E-7 极低风险 0.34
Miss Distance Evolution Trend with All Objects Subscribe to Flight Safety Assessment
Collision Probability Evolution Trend with All Objects Subscribe to Flight Safety Assessment